Showing default

GSAT 31, 44035

Orbit data source: Space-Track

GSAT 31, 44035 is a payload satellite owned by ISRO (IN) in GEO that was launched on Tue, 05 Feb 2019 UTC via an ARIANE 5ECA launch vehicle from the French Guiana (FRGUI). Payload-class satellites include a variety of spacecraft equipped with specific instruments for various scientific and technological missions. These include communications satellites like Starlink; space stations such as the ISS; scientific satellites like the Hubble; Earth observation satellites from companies like Planet Labs, Umbra, and HawkEye 360; GPS; miniature CubeSats for education and research; and military/defense satellites.

Not visible in the next 10 days
Identifier
44035, 2019-007B
Orbit
GEO
Country
Flag of ININ / IND
Related business
Manufacturer
ISRO SAC/Banga
Mission
Operational Civil Communications
Bus & Motor
I2K, ISRO LAM
Mass
2,536 kg wet, ~1,500 kg dry
Launch date (UTC)
2019-02-05 (7 years ago)
Launch vehicle
ARIANE 5ECA
Launch site
French Guiana (FRGUI)
Object type
Payload
Rocket body
Debris
Shape & HBR
Box + 2 Pan, 5.0 m
Radar Cross Section
12.304 m², Medium (>0.1 m² and < 1m²)

Expand to show TLE details & history
Last TLE update: 9 hours ago

TLE from 9 hours ago
0 GSAT 31
1 44035U 19007B   25346.92781559  .00000138  00000-0  00000-0 0  9991
2 44035   0.0217  90.4386 0006223 170.3636 202.9529  1.00272613 25106
Epoch: 2025-12-12T22:16Z
TLE epoch observation values (Epoch: 2025-12-12T22:16:03.266Z)
Latitude
0.01313°
Longitude
47.84448°
Altitude
35,810.109 km
Speed
3.073 km/s
True Right ascension
06h 54m 52s
True Declination
0° 00' 47"
Sunlit
Object was in daylight at epoch
Visualization orbit readout
Latitude
Unknown
Longitude
Unknown
Altitude
Unknown
Speed
Unknown
Apparent Right ascension
Unknown
Apparent Declination
Unknown
Sunlit
N/A
Visualization observer readout
Local Sidereal Time
05:24:51
Azimuth
Unknown
Elevation
Unknown
Doppler factor
Unknown
Orbital elements
Apogee altitude
35,813.673 km
Perigee altitude
35,761.194 km
Semi-major axis
42,165.57 km
Eccentricity
0.00062
Inclination
0.0217°
RAAN
90.4386°
Arg. of periapsis
170.3636°
True anomaly
202.92511°
Mean anomaly
202.9529°
Eccentric anomaly
202.939°
Mean motion
0.25067 °/min
Orbital period
1,436.14 mins
BSTAR
0
Loading maneuver chart data...
Computing Atmospheric mass density...
Loading historical data...
Loading historical data...
Loading historical data...
Loading historical data...
Loading historical data...
Loading historical data...
Loading historical data...
Other satellites on launch #7 in the year 2019 (2019-02-05 UTC)

Documentation

Showing up to 5 results
|